AEE2PZ LGAV-LGPZ

Flight info

Callsign AEE2PZ
Flight time 0h 40m
Altitude 26000
Route KOR UL53 IPTES/N0433F240 L53 GARTA
Aircraft A320/M-SDE3FGHIRWY/LB1

Departure

Time 2026-04-30 20:25
Airport Athens Eleftherios Venizelos International Airport (LGAV)

Arrival

Time 2026-04-30 21:05
Airport Aktion National Airport (LGPZ)
Time Latitude Longitude Altitude Speed Heading
2026-04-30 19:46 37.93142 23.94366 301 ft 0 kts 217°
2026-04-30 20:11 37.93142 23.94367 301 ft 1 kts 217°
2026-04-30 20:12 37.93176 23.94400 302 ft 4 kts 220°
2026-04-30 20:12 37.93192 23.94425 302 ft 4 kts 263°
2026-04-30 20:12 37.93188 23.94449 301 ft 1 kts 306°
2026-04-30 20:13 37.93189 23.94447 301 ft 0 kts 306°
2026-04-30 20:14 37.93190 23.94446 301 ft 1 kts 306°
2026-04-30 20:14 37.93192 23.94442 301 ft 0 kts 306°
2026-04-30 20:15 37.93204 23.94421 302 ft 6 kts 306°
2026-04-30 20:15 37.93235 23.94368 301 ft 9 kts 308°
2026-04-30 20:15 37.93277 23.94296 301 ft 10 kts 302°
2026-04-30 20:15 37.93261 23.94211 302 ft 11 kts 223°
2026-04-30 20:16 37.93230 23.94181 301 ft 0 kts 217°
2026-04-30 20:16 37.93223 23.94175 303 ft 4 kts 216°
2026-04-30 20:16 37.93187 23.94142 302 ft 9 kts 216°
2026-04-30 20:16 37.93122 23.94081 303 ft 11 kts 217°
2026-04-30 20:17 37.93098 23.94006 301 ft 11 kts 286°
2026-04-30 20:17 37.93146 23.93916 302 ft 14 kts 307°
2026-04-30 20:17 37.93212 23.93806 301 ft 15 kts 307°
2026-04-30 20:17 37.93277 23.93698 302 ft 16 kts 307°
2026-04-30 20:18 37.93351 23.93574 303 ft 19 kts 307°
2026-04-30 20:18 37.93412 23.93470 303 ft 12 kts 306°
2026-04-30 20:18 37.93418 23.93378 301 ft 12 kts 234°
2026-04-30 20:18 37.93378 23.93337 301 ft 12 kts 216°
2026-04-30 20:19 37.93283 23.93248 301 ft 14 kts 217°
2026-04-30 20:19 37.93228 23.93195 298 ft 15 kts 217°
2026-04-30 20:19 37.93139 23.93110 301 ft 17 kts 216°
2026-04-30 20:19 37.93057 23.93032 300 ft 10 kts 217°
2026-04-30 20:20 37.92996 23.92974 301 ft 12 kts 217°
2026-04-30 20:20 37.92924 23.92906 301 ft 14 kts 217°
2026-04-30 20:20 37.92842 23.92828 300 ft 16 kts 217°
2026-04-30 20:20 37.92751 23.92741 300 ft 17 kts 217°
2026-04-30 20:21 37.92652 23.92648 303 ft 18 kts 217°
2026-04-30 20:21 37.92552 23.92553 301 ft 18 kts 217°
2026-04-30 20:21 37.92510 23.92513 302 ft 14 kts 217°
2026-04-30 20:21 37.92430 23.92437 304 ft 15 kts 217°
2026-04-30 20:22 37.92339 23.92350 302 ft 17 kts 217°
2026-04-30 20:22 37.92236 23.92253 302 ft 19 kts 217°
2026-04-30 20:22 37.92145 23.92167 303 ft 16 kts 217°
2026-04-30 20:22 37.92109 23.92111 303 ft 8 kts 256°
2026-04-30 20:23 37.92128 23.92044 303 ft 8 kts 305°
2026-04-30 20:23 37.92131 23.92038 302 ft 0 kts 305°
2026-04-30 20:23 37.92132 23.92037 302 ft 1 kts 305°
2026-04-30 20:23 37.92153 23.91999 303 ft 10 kts 305°
2026-04-30 20:24 37.92182 23.91951 304 ft 4 kts 321°
2026-04-30 20:24 37.92216 23.91959 304 ft 7 kts 30°
2026-04-30 20:24 37.92255 23.91994 304 ft 7 kts 37°
2026-04-30 20:24 37.92352 23.92086 306 ft 44 kts 37°
2026-04-30 20:25 37.93509 23.93175 354 ft 146 kts 35°
2026-04-30 20:25 37.94308 23.93923 970 ft 141 kts 35°
2026-04-30 20:26 37.95948 23.95455 2020 ft 150 kts 36°
2026-04-30 20:26 37.97831 23.97162 2617 ft 188 kts 36°
2026-04-30 20:26 37.98513 23.97783 2765 ft 203 kts 35°
2026-04-30 20:27 37.99965 23.99129 3279 ft 228 kts 36°
2026-04-30 20:28 38.02711 24.01647 4528 ft 255 kts 34°
2026-04-30 20:28 38.05853 24.04000 5894 ft 274 kts 10°
2026-04-30 20:29 38.09478 24.03228 7476 ft 270 kts 322°
2026-04-30 20:30 38.11997 23.97088 10026 ft 270 kts 286°
2026-04-30 20:30 38.13884 23.89523 10812 ft 333 kts 287°
2026-04-30 20:31 38.15633 23.82537 11382 ft 371 kts 287°
2026-04-30 20:32 38.17477 23.75173 12857 ft 379 kts 287°
2026-04-30 20:32 38.19070 23.68769 14119 ft 385 kts 287°
2026-04-30 20:33 38.19879 23.65512 14731 ft 388 kts 287°
2026-04-30 20:33 38.21510 23.58929 15898 ft 393 kts 286°
2026-04-30 20:33 38.22336 23.55593 16443 ft 396 kts 286°
2026-04-30 20:34 38.23996 23.48868 17521 ft 401 kts 286°
2026-04-30 20:34 38.25673 23.42049 18518 ft 406 kts 286°
2026-04-30 20:35 38.26518 23.38609 18980 ft 408 kts 286°
2026-04-30 20:35 38.27363 23.35156 19423 ft 410 kts 286°
2026-04-30 20:35 38.29054 23.28231 20277 ft 415 kts 286°
2026-04-30 20:36 38.29913 23.24715 20685 ft 417 kts 286°
2026-04-30 20:36 38.30777 23.21182 21057 ft 419 kts 286°
2026-04-30 20:36 38.32513 23.14056 21766 ft 423 kts 286°
2026-04-30 20:37 38.33384 23.10471 22102 ft 425 kts 286°
2026-04-30 20:37 38.34256 23.06871 22432 ft 427 kts 286°
2026-04-30 20:37 38.35131 23.03245 22745 ft 429 kts 286°
2026-04-30 20:37 38.36011 22.99609 23056 ft 431 kts 286°
2026-04-30 20:38 38.36898 22.95952 23362 ft 433 kts 286°
2026-04-30 20:38 38.37788 22.92277 23686 ft 434 kts 286°
2026-04-30 20:38 38.38676 22.88583 23907 ft 437 kts 286°
2026-04-30 20:39 38.40431 22.81231 24601 ft 435 kts 286°
2026-04-30 20:39 38.41311 22.77555 25013 ft 433 kts 286°
2026-04-30 20:39 38.41754 22.75708 25253 ft 430 kts 286°
2026-04-30 20:40 38.42133 22.74127 25467 ft 429 kts 286°
2026-04-30 20:40 38.42999 22.70503 25901 ft 427 kts 286°
2026-04-30 20:40 38.43861 22.66882 26045 ft 427 kts 286°
2026-04-30 20:41 38.45600 22.59579 26075 ft 432 kts 286°
2026-04-30 20:41 38.46473 22.55899 26065 ft 432 kts 286°
2026-04-30 20:41 38.47339 22.52232 26079 ft 432 kts 286°
2026-04-30 20:41 38.48195 22.48606 26078 ft 432 kts 286°
2026-04-30 20:42 38.49063 22.44926 26068 ft 432 kts 286°
2026-04-30 20:42 38.49924 22.41265 26059 ft 430 kts 286°
2026-04-30 20:42 38.51645 22.33938 26067 ft 430 kts 286°
2026-04-30 20:43 38.52490 22.30338 26060 ft 430 kts 286°
2026-04-30 20:43 38.53349 22.26670 26069 ft 430 kts 286°
2026-04-30 20:43 38.54374 22.23087 26066 ft 431 kts 292°
2026-04-30 20:44 38.56854 22.16096 26064 ft 430 kts 293°
2026-04-30 20:44 38.58095 22.12614 26067 ft 430 kts 293°
2026-04-30 20:44 38.60550 22.05727 26065 ft 430 kts 293°
2026-04-30 20:45 38.63028 21.98747 26063 ft 430 kts 293°
2026-04-30 20:45 38.64259 21.95261 26064 ft 430 kts 293°
2026-04-30 20:45 38.65490 21.91777 26036 ft 430 kts 293°
2026-04-30 20:46 38.69181 21.81335 25302 ft 432 kts 293°
2026-04-30 20:46 38.70419 21.77827 24873 ft 430 kts 293°
2026-04-30 20:47 38.72870 21.70849 22665 ft 428 kts 292°
2026-04-30 20:47 38.74077 21.67397 21818 ft 421 kts 292°
2026-04-30 20:48 38.76424 21.60682 20152 ft 409 kts 292°
2026-04-30 20:48 38.77577 21.57383 19355 ft 404 kts 292°
2026-04-30 20:48 38.78719 21.54112 18573 ft 400 kts 292°
2026-04-30 20:48 38.79856 21.50851 17643 ft 399 kts 292°
2026-04-30 20:49 38.80982 21.47616 16848 ft 395 kts 292°
2026-04-30 20:49 38.82095 21.44414 16065 ft 392 kts 292°
2026-04-30 20:49 38.83200 21.41238 15294 ft 389 kts 292°
2026-04-30 20:50 38.85380 21.34957 13823 ft 385 kts 293°
2026-04-30 20:50 38.86466 21.31820 13065 ft 382 kts 293°
2026-04-30 20:50 38.87535 21.28728 12397 ft 377 kts 292°
2026-04-30 20:50 38.88595 21.25656 11725 ft 376 kts 293°
2026-04-30 20:51 38.89666 21.22543 11073 ft 376 kts 293°
2026-04-30 20:51 38.91619 21.16907 10511 ft 315 kts 293°
2026-04-30 20:51 38.92470 21.14452 10386 ft 288 kts 293°
2026-04-30 20:52 38.93248 21.12198 10092 ft 272 kts 293°
2026-04-30 20:52 38.94001 21.10006 9901 ft 267 kts 293°
2026-04-30 20:52 38.95495 21.05628 9635 ft 267 kts 293°
2026-04-30 20:53 38.96242 21.03445 9510 ft 267 kts 293°
2026-04-30 20:53 38.96992 21.01257 9383 ft 268 kts 293°
2026-04-30 20:53 38.97701 20.99023 9256 ft 270 kts 286°
2026-04-30 20:54 38.97704 20.94262 8987 ft 269 kts 255°
2026-04-30 20:54 38.97051 20.92040 8854 ft 269 kts 251°
2026-04-30 20:54 38.96363 20.89792 8455 ft 274 kts 251°
2026-04-30 20:55 38.94988 20.85261 7786 ft 271 kts 251°
2026-04-30 20:55 38.94309 20.83007 7426 ft 269 kts 251°
2026-04-30 20:55 38.93637 20.80778 6842 ft 267 kts 251°
2026-04-30 20:56 38.92290 20.76331 5549 ft 266 kts 251°
2026-04-30 20:56 38.91627 20.74154 4938 ft 264 kts 250°
2026-04-30 20:56 38.90293 20.69786 3823 ft 256 kts 250°
2026-04-30 20:57 38.89663 20.67728 3639 ft 239 kts 250°
2026-04-30 20:57 38.89082 20.65830 3511 ft 219 kts 250°
2026-04-30 20:57 38.88537 20.64048 3405 ft 212 kts 250°
2026-04-30 20:58 38.86703 20.61180 3187 ft 215 kts 211°
2026-04-30 20:58 38.85408 20.60267 2968 ft 213 kts 211°
2026-04-30 20:58 38.84721 20.59779 2765 ft 216 kts 211°
2026-04-30 20:59 38.83261 20.58735 2361 ft 219 kts 212°
2026-04-30 20:59 38.82134 20.57533 2204 ft 200 kts 242°
2026-04-30 21:00 38.82309 20.54341 2114 ft 188 kts 313°
2026-04-30 21:00 38.84718 20.53634 2027 ft 193 kts 22°
2026-04-30 21:01 38.86235 20.56424 1891 ft 200 kts 66°
2026-04-30 21:01 38.86752 20.58086 1806 ft 200 kts 66°
2026-04-30 21:01 38.87790 20.61378 1828 ft 188 kts 65°
2026-04-30 21:02 38.88249 20.62833 1768 ft 169 kts 65°
2026-04-30 21:02 38.88286 20.62951 1756 ft 168 kts 66°
2026-04-30 21:02 38.88385 20.63261 1737 ft 164 kts 66°
2026-04-30 21:03 38.88799 20.64572 1589 ft 151 kts 65°
2026-04-30 21:03 38.89191 20.65813 1412 ft 149 kts 65°
2026-04-30 21:03 38.89583 20.67041 1239 ft 148 kts 66°
2026-04-30 21:03 38.89971 20.68265 1020 ft 147 kts 66°
2026-04-30 21:04 38.90356 20.69461 830 ft 148 kts 66°
2026-04-30 21:04 38.90713 20.70689 683 ft 147 kts 68°
2026-04-30 21:04 38.91479 20.73075 339 ft 142 kts 69°
2026-04-30 21:05 38.91847 20.74240 167 ft 140 kts 67°
2026-04-30 21:05 38.92208 20.75387 31 ft 135 kts 68°
2026-04-30 21:05 38.92516 20.76363 20 ft 97 kts 68°
2026-04-30 21:05 38.92681 20.76889 19 ft 25 kts 68°
2026-04-30 21:06 38.92750 20.77107 18 ft 27 kts 68°
2026-04-30 21:06 38.92838 20.77220 17 ft 0 kts 354°